Theta_e
314 311 307 306 305 306 304 302 302 302 302 302 304 304 304 304 305 307 306 319 330 337 341 341 341 342 343 341 340 340 339 339 338 338 339 340 340 340 338 338 337 336 335
312 309 306 305 304 304 302 301 300 300 299 300 299 300 300 302 302 302 303 305 316 325 332 341 341 341 342 341 340 339 338 337 337 337 338 338 339 339 338 338 338 337 336
312 309 306 304 303 301 300 300 300 299 298 299 297 297 297 296 298 299 301 302 304 310 322 331 340 339 341 341 340 339 336 337 337 338 337 337 337 337 337 337 337 337 337
310 308 305 302 302 302 302 302 301 299 297 297 295 294 293 293 294 295 297 299 302 302 307 318 327 335 338 338 338 339 338 337 336 336 336 336 336 336 336 335 335 335 336
307 305 303 302 303 303 301 300 298 297 294 293 292 291 290 289 290 293 293 296 298 299 301 307 312 320 329 337 339 338 337 335 334 333 332 331 331 331 331 331 331 331 331
305 304 302 301 302 302 300 299 296 295 294 292 291 290 289 288 288 288 289 292 294 296 298 299 300 304 317 329 333 333 332 331 330 329 329 328 328 328 326 325 325 325 326
304 304 302 300 300 300 297 295 293 292 292 293 290 289 288 288 288 287 288 289 291 292 295 296 298 300 301 314 326 328 328 328 327 325 324 324 324 324 322 322 322 321 321
302 303 301 299 297 296 294 293 292 288 289 291 290 290 286 289 288 288 288 288 287 290 291 293 294 296 298 303 312 321 324 324 323 321 321 321 320 320 320 319 318 317 317
299 300 299 298 295 296 294 290 289 290 286 286 289 292 286 287 282 285 285 286 286 287 288 290 290 292 294 299 307 310 317 318 319 319 318 317 317 317 316 316 315 314 313
296 295 295 295 294 292 291 290 290 289 289 286 287 288 287 285 283 280 283 284 287 287 285 286 286 288 290 293 302 309 313 314 315 315 315 314 313 312 312 311 311 311 311
294 293 293 293 292 293 290 290 289 288 288 287 285 285 285 285 284 282 279 281 284 285 286 285 284 285 287 290 294 303 308 310 311 312 312 310 310 310 310 309 309 308 308
291 292 291 290 290 290 290 289 287 287 286 286 285 286 286 285 284 282 279 279 280 282 285 287 285 286 285 287 294 299 302 305 307 308 307 306 306 306 307 307 306 306 306
289 290 291 290 288 288 288 286 286 285 285 285 285 285 286 286 287 285 283 281 280 284 285 286 286 287 287 287 289 293 298 300 302 303 304 303 302 302 303 304 304 304 304
290 290 289 289 288 287 286 286 285 284 284 284 284 284 284 285 286 286 283 281 278 279 281 281 283 284 286 287 289 290 288 297 299 300 300 300 300 300 300 301 301 302 302
290 290 289 288 288 287 287 286 287 285 284 282 282 283 283 283 284 285 285 285 284 278 280 280 282 284 284 284 286 283 284 294 296 296 296 296 296 297 299 300 300 300 299
289 288 288 287 287 287 287 287 285 285 284 281 282 282 281 281 281 282 282 283 282 281 280 279 279 280 281 285 286 282 284 288 293 294 294 294 294 295 296 297 297 297 297
288 288 287 287 286 286 286 286 285 285 284 283 282 281 280 280 279 280 281 281 280 280 277 278 280 280 280 280 281 281 282 281 282 291 293 293 293 294 294 294 294 295 294
287 287 287 286 286 286 285 285 284 284 283 281 281 279 279 281 278 279 279 279 279 279 279 277 278 278 279 278 278 279 282 284 282 290 292 292 292 292 292 292 293 293 292
286 286 286 285 284 284 284 284 283 282 282 281 281 279 279 279 278 278 278 278 279 280 279 278 277 278 278 278 278 279 280 280 284 288 290 291 291 291 291 291 291 291 291
284 284 285 285 284 284 283 282 282 281 281 281 279 279 279 278 278 278 279 278 279 278 278 277 277 277 278 279 278 278 279 280 280 284 286 287 288 288 288 289 289 289 291
284 284 284 284 284 283 283 282 281 281 280 279 279 279 279 282 285 283 279 277 278 277 277 277 277 277 277 278 278 279 279 279 279 279 279 280 280 280 281 284 286 289 290
283 283 282 282 282 283 287 286 283 281 281 280 280 281 282 286 287 289 288 286 281 275 276 277 277 277 277 278 278 278 278 277 275 280 278 279 280 279 280 281 288 290 290
282 281 281 282 282 284 288 287 285 281 280 280 280 280 281 284 283 282 288 288 287 287 283 276 273 275 275 279 278 277 277 277 277 279 279 277 279 278 280 283 287 288 289
281 281 281 282 284 285 288 287 285 281 280 279 278 279 278 278 279 279 279 279 279 279 280 280 278 278 279 279 279 279 279 278 279 280 279 274 278 278 280 280 286 287 287
280 280 281 283 284 285 288 287 282 280 279 278 278 278 278 278 285 285 279 276 278 279 284 286 284 285 285 286 283 279 273 272 273 277 280 277 278 278 278 278 280 286 286
280 281 281 282 286 284 288 286 283 281 279 279 279 280 284 280 287 284 278 275 273 277 278 279 279 281 281 281 285 280 276 271 274 273 278 277 277 277 274 278 279 280 280
Wind_Speed
8 7 5 5 6 6 7 8 8 8 10 10 10 10 10 10 9 6 6 24 25 27 23 6 6 11 14 16 17 17 17 16 15 13 13 11 10 10 10 10 9 10 10
8 8 6 6 6 6 6 7 7 9 8 8 11 10 10 9 9 11 7 8 23 28 28 25 8 11 15 17 17 17 16 15 15 13 12 11 9 9 10 10 8 6 8
10 10 8 6 6 7 10 9 9 8 9 8 12 10 9 11 10 11 8 8 10 20 26 29 26 7 14 16 17 18 12 11 14 17 13 13 14 14 14 14 14 15 13
9 9 8 7 7 7 7 7 7 9 9 9 9 8 9 9 10 10 9 9 9 8 12 26 30 28 14 13 16 18 21 21 22 22 24 25 23 23 22 22 22 22 21
9 8 7 7 8 7 7 7 5 8 8 9 9 8 8 8 8 8 11 11 11 10 8 17 24 28 27 22 24 25 25 24 23 24 25 25 25 24 23 23 23 22 20
9 10 7 8 7 8 7 7 10 6 8 9 10 9 8 7 7 8 8 7 9 10 10 12 9 11 25 23 23 24 25 24 25 24 25 23 22 22 22 21 21 20 20
8 10 7 7 6 8 8 9 9 12 7 6 5 6 7 7 9 7 6 6 8 8 10 9 7 7 8 22 20 20 20 21 21 21 21 20 19 19 19 19 19 19 18
7 9 10 7 7 9 10 8 7 4 3 1 4 3 3 2 5 7 6 6 8 6 9 10 10 10 8 7 16 21 20 19 18 17 19 18 18 17 17 16 16 17 17
5 8 8 8 8 7 8 5 5 6 4 1 3 5 3 3 2 3 6 5 6 6 6 7 9 9 9 8 12 13 16 17 18 15 14 15 12 13 13 15 15 15 16
6 5 6 7 8 7 8 4 4 3 4 5 2 4 5 5 5 1 3 4 5 6 6 5 7 8 8 6 12 16 13 15 15 15 14 17 11 11 11 12 12 13 14
5 6 5 7 7 6 8 8 5 5 3 4 3 3 3 4 4 4 3 1 4 4 4 4 5 5 7 7 6 12 16 15 14 15 16 13 12 12 10 10 12 12 13
4 4 5 6 6 6 8 6 5 5 4 5 3 3 3 3 3 4 4 2 3 2 3 4 5 4 4 6 10 14 15 15 15 14 13 12 12 12 11 11 11 11 11
4 5 4 5 6 5 7 7 6 6 5 4 4 3 2 2 3 4 4 3 3 1 1 2 3 3 4 4 6 12 14 14 13 13 12 12 12 11 11 11 10 10 10
3 6 4 5 6 7 7 6 5 5 6 5 7 5 4 3 2 3 5 5 3 2 2 1 3 4 4 3 8 11 6 13 13 13 12 12 12 11 11 11 10 10 11
5 4 6 7 7 7 8 7 6 7 7 5 6 6 4 3 4 3 3 3 4 4 1 1 2 3 3 4 6 5 6 11 11 11 11 11 10 10 10 10 10 10 10
8 5 8 5 8 6 8 10 7 7 9 5 4 7 5 3 5 4 4 3 3 4 4 1 0 1 3 3 5 5 6 9 10 10 10 9 9 9 9 9 8 9 9
6 6 7 5 8 8 7 9 9 8 9 8 5 7 7 5 4 4 4 3 4 3 4 2 1 2 3 3 4 4 4 4 4 7 8 9 8 9 9 9 9 9 9
7 6 7 6 6 5 8 10 9 8 10 8 8 8 7 5 6 5 4 5 4 3 4 4 1 2 3 2 2 3 3 3 4 8 8 9 8 8 8 9 10 9 8
10 8 7 7 8 5 9 8 8 8 8 7 7 8 7 7 6 4 5 5 4 3 3 5 3 1 2 2 3 3 3 3 3 8 8 11 11 10 10 10 11 10 9
11 8 7 7 8 7 8 9 9 9 8 6 7 7 6 7 7 6 6 5 4 5 5 4 4 3 2 2 3 3 3 3 3 4 6 8 10 10 11 10 11 10 9
11 10 9 6 8 7 5 7 8 9 9 7 6 7 6 9 12 9 5 4 5 4 4 4 3 2 2 2 3 1 2 2 2 3 3 3 3 3 4 8 7 9 10
10 10 9 8 7 5 15 15 11 9 8 8 8 6 6 11 12 15 14 11 7 4 3 3 2 3 2 2 1 1 1 2 2 1 3 4 2 3 3 4 10 10 10
9 10 9 9 5 8 19 18 16 7 8 7 7 7 7 6 8 6 12 12 11 11 7 5 4 2 3 3 3 1 1 0 1 3 2 3 2 3 3 4 12 11 11
8 9 8 8 10 7 18 18 17 8 7 6 6 6 7 7 6 7 6 6 6 5 5 4 4 4 3 3 3 2 2 1 2 3 3 2 1 2 3 5 11 7 10
7 6 7 8 8 7 18 19 13 8 8 7 6 6 6 6 10 11 6 5 4 3 4 5 5 4 3 2 3 3 1 2 2 2 1 2 2 3 3 3 3 3 14
6 6 7 5 11 7 18 18 12 7 8 6 5 5 11 7 11 10 6 5 4 3 3 2 3 4 5 4 5 2 2 2 1 2 1 1 2 3 4 2 2 4 4
Wind_Direction
113 115 98 88 85 93 89 85 82 78 72 69 65 60 52 43 35 31 29 30 39 45 41 43 126 124 122 117 108 101 91 84 76 73 73 76 74 82 75 105 96 88 84
126 121 112 105 96 95 88 88 89 87 77 72 65 59 53 51 44 38 28 24 32 40 36 31 133 124 126 122 115 100 89 80 70 62 64 74 71 76 80 73 78 102 98
134 130 123 111 108 104 104 99 92 89 85 74 67 55 47 37 38 38 31 27 22 26 34 36 46 107 113 107 103 90 77 87 81 70 74 68 67 63 58 59 59 57 53
128 126 126 122 123 115 111 107 107 94 85 77 70 54 49 40 36 33 34 33 27 9 19 34 39 46 81 100 109 103 87 80 72 72 67 63 67 69 67 63 58 52 49
120 117 122 125 124 116 110 115 92 105 105 93 82 68 52 42 34 31 31 32 29 22 16 27 37 42 37 71 78 82 80 76 72 69 68 64 58 57 57 56 53 50 46
123 121 120 123 125 122 118 118 109 96 108 108 92 73 56 41 37 34 23 28 28 28 24 24 22 30 38 41 73 75 75 74 70 64 61 59 58 57 54 50 50 49 42
130 131 128 127 123 131 128 124 114 115 103 120 95 74 55 44 44 29 18 22 27 27 31 28 26 28 20 36 46 79 76 71 69 65 59 54 51 51 49 46 44 43 40
129 135 141 142 129 129 127 141 137 128 95 352 113 104 99 31 39 32 26 22 23 23 33 30 30 32 28 26 43 47 71 75 70 64 61 49 44 43 44 48 42 39 35
132 140 138 144 134 138 146 138 131 126 136 48 75 125 118 179 107 352 23 20 27 31 29 26 23 25 26 32 42 40 55 68 64 57 62 59 41 46 39 40 38 32 33
95 107 125 138 142 131 131 135 129 119 121 133 90 45 48 132 149 110 6 12 29 35 26 33 32 19 15 24 37 43 53 66 70 64 52 54 43 42 40 37 35 34 33
117 116 131 140 148 148 139 144 137 136 100 129 122 132 77 62 72 125 154 329 39 18 29 34 43 30 15 14 21 43 50 54 61 60 56 53 46 41 40 38 35 34 34
122 142 138 142 136 147 138 143 134 136 124 114 117 119 137 152 159 129 120 118 124 11 32 34 40 30 26 20 34 46 52 51 52 57 62 54 47 40 35 36 36 37 36
131 145 158 168 140 143 132 133 132 127 130 123 127 104 99 106 125 115 103 120 129 140 86 36 37 36 41 30 31 37 51 55 56 56 55 51 42 37 33 29 30 35 33
134 121 159 124 125 132 121 117 118 112 113 113 109 98 97 73 89 122 142 139 97 84 58 154 16 32 35 27 41 41 23 59 58 56 53 49 42 36 29 29 32 30 34
117 155 138 134 133 129 121 119 122 110 107 96 99 99 92 62 67 79 108 116 133 138 134 60 89 18 25 41 51 34 29 46 55 55 51 47 42 33 33 37 35 35 24
127 154 120 145 111 119 117 119 106 103 108 97 103 98 84 68 67 62 85 86 79 124 127 146 84 130 27 58 42 42 33 39 37 45 46 44 42 38 37 33 25 14 16
94 131 109 133 113 119 117 110 108 118 109 110 96 98 89 91 80 73 74 75 79 95 111 106 90 38 59 49 26 26 39 39 16 28 44 42 41 40 38 30 21 17 10
129 133 114 106 111 115 122 116 117 122 121 117 114 102 97 94 76 72 76 82 85 68 111 115 98 60 80 42 53 50 12 40 20 21 37 33 39 32 26 22 18 6 360
103 100 111 112 108 114 99 93 109 112 104 116 114 108 114 105 87 79 76 83 78 75 89 124 123 103 77 40 60 34 37 10 10 23 49 44 37 30 18 10 0 350 346
112 98 96 103 95 94 96 110 108 102 97 100 98 101 105 100 110 99 85 84 84 83 81 95 81 88 98 35 75 66 25 23 9 11 30 32 17 6 356 352 349 342 333
116 118 106 96 86 87 93 87 100 110 117 105 96 100 105 113 108 105 104 94 94 84 85 87 83 79 66 59 69 5 57 343 6 22 346 340 344 341 337 346 331 330 339
125 123 117 115 112 127 156 147 132 121 118 117 113 98 99 99 105 106 105 108 118 120 102 111 115 117 112 108 76 70 46 33 342 343 359 312 331 328 322 323 329 329 329
121 116 121 126 138 151 153 147 135 124 119 120 116 110 97 91 87 82 96 91 90 91 99 132 121 142 133 159 140 110 100 120 250 288 18 299 333 322 312 314 319 327 329
130 129 135 150 141 149 152 146 136 122 117 107 108 107 109 107 110 106 99 85 77 72 86 96 117 158 146 168 174 165 178 254 283 277 163 251 295 284 298 294 319 345 12
118 119 152 136 137 144 153 147 134 125 117 113 115 113 119 127 135 127 108 104 96 76 56 109 147 175 183 134 162 103 341 91 303 272 225 187 287 285 268 286 307 327 350
137 141 131 133 152 146 156 152 137 130 128 129 114 133 145 150 146 140 131 132 121 163 126 88 50 53 47 22 35 113 159 165 204 328 285 343 315 354 328 286 303 321 350